Regional Weather Roundup
Issued by NWS Midland/Odessa, TX

Skip options and go directly to product.
Home | Oldest Version | Previous Version | Current Version | All | Text Only | Save Text | Print | Product List | Glossary On

Skip product version selection by date and time.   
805
ASUS44 KMAF 010710
RWRMAF
MIDLAND AREA WEATHER ROUNDUP
NATIONAL WEATHER SERVICE MIDLAND TX
200 AM CDT SAT AUG 01 2015

...IN SOUTHWEST TEXAS AND SOUTHEAST NEW MEXICO...

CITY           SKY/WX    TMP DP  RH WIND       PRES   REMARKS
ALPINE         CLEAR     75  58  55 CALM      30.27F
ANDREWS        FAIR      77  65  66 E9G23     30.16S
ARTESIA        DRIZZLE   81  66  61 E10G18    30.16F
BIG SPRING     CLEAR     78  64  62 E13       30.15S
CARLSBAD       MOCLDY    81  56  42 N5        30.12R
DRYDEN           N/A     84  64  50 NW5       30.06F
FORT STOCKTON  CLOUDY    81  62  52 S12       30.13R
GUAD PASS      CLEAR     76  52  43 SE14G20   30.28F
HOBBS          CLEAR     75  63  64 E12       30.19S
MARFA          CLEAR     64  55  72 W3        30.24F
MIDLAND AIRPK  PTCLDY    81  65  59 SE10      30.13F
MIDLAND INTL   PTCLDY    79  66  64 E12G30    30.12F
ODESSA         MOCLDY    81  65  58 SE9       30.14S
PECOS          LGT RAIN  79  62  56 SE22G29   30.07F
PRESIDIO       FAIR      86  57  36 MISG      30.06F
SEMINOLE       CLEAR     77  64  65 E10       30.18F
SNYDER         CLEAR     75  66  72 SE5       30.14S
WINK           CLEAR     84  59  42 SE10      30.09S
$$
...OTHER STATIONS IN TEXAS...

CITY           SKY/WX    TMP DP  RH WIND       PRES   REMARKS
ABILENE        PTCLDY    77  65  66 SE3       30.09F
AMARILLO       RAIN      64  63  96 S10       30.22F
AUSTIN         CLEAR     73  68  84 CALM      29.98F
BROWNSVILLE    CLOUDY    79  75  87 CALM      29.96F
CORPUS CHRISTI CLOUDY    78  74  87 N3        29.96F
DALLAS FTW     MOCLDY    82  58  43 SE5       30.01F
DEL RIO        CLOUDY    82  68  62 SE6       30.02F
EL PASO        MOCLDY    82  52  35 SE6       30.13S
HOUSTON INT    PTCLDY    76  68  76 CALM      29.96F
LUBBOCK        CLOUDY    73  67  81 N13       30.21R
SAN ANGELO     PTCLDY    82  67  60 S6        30.09F
SAN ANTONIO    PTCLDY    79  72  79 NW6       30.00F
WACO           PTCLDY    79  61  53 CALM      30.01F
WICHITA FALLS  NOT AVBL
$$
...OTHER LOCATIONS IN NEW MEXICO...

CITY           SKY/WX    TMP DP  RH WIND       PRES   REMARKS
ALAMAGORDO     PTCLDY    75  55  50 NW7       30.20R
ALBUQUERQUE    CLOUDY    70  59  68 W8        30.31S
CANNON AFB     CLOUDY    69  67  94 SE7       30.25S
CLOVIS         CLOUDY    68  64  88 SE9       30.26S
HOLLOMAN AFB   CLOUDY    78  57  48 N9        30.18R
ROSWELL        CLOUDY    80  62  54 E14       30.18S
RUIDOSO          N/A    N/A N/A N/A MISG        N/A
SANTA FE       CLOUDY    64  59  83 E7        30.37F
TRUTH OR CONSE CLOUDY    69  64  84 NE6       30.27R
TUCUMCARI      CLOUDY    70  66  87 CALM      30.23S
$$

USA.gov is the U.S. government's official web portal to all federal, state and local government web resources and services.